COSMOS 1363

Satellite information

Favourite Embed

Satellite Type and Status

PAYLOADIN ORBIT

Key statistics

Satellite COSMOS 1363 at a glance.

Uptime

15885

Days in orbit

Revolutions

≈ 12.4

Per day

Orbit

LEO

Low Earth Orbit

Inclination

74.0

Latest

Satellite identification and parameters

Extended collection of information and parameters for COSMOS 1363.

Object identification

Identified? True

Debris? False

Object name: COSMOS 1363

International designator: 1982-040G

Object number (NORAD): 13166

Object ID (CCSDS): 13166

Country: COMMONWEALTH OF INDEPENDENT STATES (CIS)

Current information (Y/N): Y

RCS size: MEDIUM

Orbital parameters

Period: 115.741 minutes

Inclination: 74.0079 deg

SMA: 7867.162 km

Apoapsis: 1504.054 km

Periapsis: 1474.001 km

RAAN: 126.5313 deg

Eccentricy: 0.00191

Argument of periapsis: 51.4917 deg

Mean anomaly: 59.178 deg

Mean motion: 12.44158158 rev/day

Mean motion (dot): 0.00000012 rev/day2

B* drag term: 0.0001943 1/REarth

Two-line elements (TLE)

Creation date: Oct. 31, 2025, 11:06 p.m.

Reference frame: TEME

Reference center: EARTH

Epoch: Oct. 31, 2025, 8:30 p.m. UTC

TLE line 0: 0 COSMOS 1363

TLE line 1: 1 13166U 82040G 25304.85420683 .00000012 00000-0 19430-3 0 9994

TLE line 2: 2 13166 74.0079 126.5313 0019100 51.4917 59.1780 12.44158158975140

Live tracking on map

Real-time ground track for satellite COSMOS 1363.

In-orbit conjunctions

A list of the most updated potential collisions computed for object COSMOS 1363.

Target Orbit TCA Probability of collision Miss distance Type
COSMOS 839 DEB MEO 2025-05-01 00:20:03 0.0002458279 645.0 (m) DEBRIS

Associated space launch

Military communications satellites

COSMOS 1363 was lifted into orbit during the mission ‘Kosmos-3M | Strela-1M 233-240’, on board a Kosmos-3M space rocket.

The launch took place on May 6, 1982, 6:07 p.m. from 132/2.

For more information about the launch, click the button.

Launch to space Kosmos-3M | Strela-1M 233-240
Kosmos-3M | Strela-1M 233-240

Agency: N/A

Status: Launch Successful

Launch date: May 6, 1982, 6:07 p.m. UTC

Rocket: Kosmos-3M

Launch pad: 132/2

Location: Plesetsk Cosmodrome, Russian Federation

...

Latest news about this satellite

There are no fresh news available about this satellite. Check back as we update our databases every day.


Newsletter sign-up

Weekly statistics, charts and insights to help you stay on top of the space industry.